sat.trackr.live / text

‹ back to catalog

STARLINK-30881

NORAD 58251 · 2023-171X

PAYLOAD ACTIVE UNKNOWN

§ Identity

Operator
Country
US
Launch date
2023-11-08
Launch site
AFETR
Launch vehicle
Mass (kg)
RCS (m²)

Purposes: comms

External: N2YO · Heavens-Above · Gunter

§ Orbital elements

Epoch: 2026-05-25T04:35:49.716096Z

Period
94.27 min
Inclination
43.0015°
Eccentricity
0.0001673
Mean motion
15.27580009 rev/d
Perigee alt
481.9 km
Apogee alt
484.2 km
Semi-major
6,861.2 km
B*
7.9349e-5
RAAN
213.1718°
Arg perigee
274.2252°
Mean anomaly
85.8408°
Rev number
14,143

§ Raw data

STARLINK-308811 58251U 23171X   26145.19154764  .00001922  00000+0  79349-4 0  99992 58251  43.0015 213.1718 0001673 274.2252  85.8408 15.27580009141433

JSON: /api/v1/satellites/58251 · /tle

For live sub-satellite position, see the globe view (requires WebGL).

§ Visibility from observer

Set your observer location to see the next 7 days of passes ≥ 10°. The values pass through the URL so the page stays shareable.

No JS? Fill the form by hand. The geolocation button needs JavaScript.